www.pogodaiklimat.ru

Погода и климат >> Архив погоды >> Мексика >> Acapulco


АРХИВ ПОГОДЫ в Acapulco

Время (UTC), дата Ветер
(напр.,м/с)
 
Видим.   Явления Облачность Т
(С)
Тd
(С)
f
(%)
Тe
(С)
Тes
(С)
Комфортность P
(гПа)
Po
(гПа)
Тmin
(С)
Tmax
(С)
R
(мм)
R24
(мм)
S
(см)
09 17.05 З 1 10 км ясно +26.8 +24.2 86 +37 +37 очень
душно
1009.8 1009.5
12 17.05 З 1 15 км 4/0 2000 м
[Ac trans Cs]
+26.2 +24.5 90 +37 +37 очень
душно
1010.0 1009.6 +24.8 +33.4
15 17.05 З 3 19 км мгла 1/1 840 м
[Cu med, cong]
+30.3 +24.5 71 +43 +49 опасность
перегрева
1010.9 1010.4
18 17.05 ЮЗ 3 19 км мгла 1/1 840 м
[Cu med, cong]
+31.2 +25.6 72 +46 +62 опасность
перегрева
1010.7 1010.2 +24.8 +33.0
21 17.05 ЮЗ 4 19 км мгла ясно +32.6 +24.7 63 +46 +56 опасность
перегрева
1008.6 1008.1
00 18.05 ЮЗ 4 19 км мгла ясно +30.4 +24.9 72 +43 +44 опасность
перегрева
1007.2 1006.7 +24.8 +34.1
03 18.05 ЮЗ 4 19 км мгла ясно +30.4 +24.9 72 +43 +43 опасность
перегрева
1007.2 1006.7 +24.8 +34.1
06 18.05 З 3 10 км 5/1 870 м
[Cu hum Ac As]
+28.2 +25.1 83 +41 +41 опасность
перегрева
1009.0 1008.7
09 18.05 З 2 10 км туман 6/3 870 м
[Cu hum Ac lent]
+26.8 +24.4 87 +38 +38 очень
душно
1009.3 1008.8
12 18.05 З 2 15 км 5/1 870 м
[Cu med, cong Ac As]
+26.3 +23.6 85 +36 +36 очень
душно
1009.3 1008.8 +25.1 +34.1
15 18.05 З 1 20 км 4/1 900 м
[Cu hum Ac trans]
+29.8 +23.5 69 +40 +48 очень
душно
1010.2 1009.6
18 18.05 ЮЗ 3 20 км 1/1 900 м
[Cu hum]
+31.2 +24.7 68 +44 +60 опасность
перегрева
1009.3 1008.8 +25.1 +32.0
21 18.05 З 3 20 км 1/1 900 м
[Cu hum]
+31.4 +24.3 66 +44 +55 опасность
перегрева
1007.4 1006.7
00 19.05 З 2 20 км 1/1 600 м
[Cu hum]
+30.0 +24.0 70 +41 +43 опасность
перегрева
1006.9 1006.4 +25.1 +33.0
03 19.05 З 2 10 км 1/1 900 м
[Cu hum]
+27.2 +24.3 84 +38 +38 очень
душно
1007.9 1007.4
06 19.05 З 2 10 км 5/0
[Cs]
+26.8 +24.5 87 +38 +38 очень
душно
1009.5 1009.0 +25.1 +33.0
09 19.05 З 2 10 км туман 6/3 900 м
[Cu hum Ac trans]
+26.4 +24.4 89 +37 +37 очень
душно
1008.6 1008.1
12 19.05 З 1 15 км 4/3 900 м
[Cu hum Ac trans]
+26.0 +24.3 90 +36 +36 очень
душно
1009.0 1008.6 +24.8 +33.0
15 19.05 С 1 18 км 3/3 900 м
[Cu med, cong]
+29.3 +24.6 76 +42 +49 опасность
перегрева
1009.3 1008.9
18 19.05 СЗ 2 20 км 1/1 900 м
[Cu hum]
+31.0 +24.1 67 +43 +62 опасность
перегрева
1008.6 1008.0 +24.8 +32.2
21 19.05 ЮЗ 3 18 км мгла ясно +31.1 +24.4 68 +44 +57 опасность
перегрева
1006.0 1005.5
00 20.05 З 3 20 км 3/3 600 м
[Cu med, cong]
+29.6 +24.3 73 +41 +42 опасность
перегрева
1004.6 1004.3 +24.8 +32.8
03 20.05 З 3 10 км 4/1 900 м
[Cu hum Cs]
+27.3 +23.9 82 +38 +38 очень
душно
1007.3 1006.8
06 20.05 З 2 10 км 3/0
[Cs]
+26.6 +24.2 87 +37 +37 очень
душно
1008.7 1008.3 +24.8 +32.8
09 20.05 СЗ 1 10 км 3/0
[Cs]
+25.6 +23.9 90 +35 +35 очень
душно
1007.6 1007.2
12 20.05 ЮЗ 1 15 км 1/0
[Cs]
+24.9 +23.6 92 +34 +34 очень
душно
1007.6 1007.2 +23.6 +32.8
15 20.05 СЗ 1 20 км 5/0 1440 м
[Ac As Cs]
+30.0 +24.9 74 +43 +50 опасность
перегрева
1009.7 1009.4
18 20.05 ЮЗ 3 20 км 4/0
[Cs]
+31.4 +25.2 70 +45 +62 опасность
перегрева
1010.0 1009.5 +23.6 +32.8
21 20.05 З 3 20 км 1/1 900 м
[Cu hum]
+32.2 +26.2 71 +48 +60 опасность
перегрева
1008.1 1007.5
00 21.05 З 3 20 км 4/1 600 м
[Cu hum Ac trans]
+30.0 +23.7 69 +41 +42 опасность
перегрева
1007.2 1006.7 +23.6 +33.0
03 21.05 З 2 10 км 6/1 900 м
[Cu hum Ac trans]
+27.8 +24.1 80 +39 +39 очень
душно
1009.7 1009.4
06 21.05 З 1 10 км 5/1 600 м
[Cu hum Ac trans]
+27.0 +24.4 86 +38 +38 очень
душно
1010.4 1010.0 +23.6 +33.0
09 21.05 З 1 10 км 4/1 900 м
[Cu hum Ac trans]
+27.0 +24.1 84 +37 +37 очень
душно
1008.8 1008.4
12 21.05 З 1 15 км 1/1 900 м
[Cu hum]
+25.4 +23.7 90 +35 +35 очень
душно
1009.5 1009.1 +24.4 +33.0
15 21.05 С 1 19 км 4/0
[Cs]
+29.7 +24.4 73 +42 +51 опасность
перегрева
1010.9 1010.5
18 21.05 ЮЗ 4 19 км 6/0
[Cs]
+31.6 +25.1 69 +46 +58 опасность
перегрева
1010.9 1010.4 +24.4 +32.8
21 21.05 З 5 19 км мгла 5/3 870 м
[Cu hum Cs]
+31.9 +25.3 68 +46 +51 опасность
перегрева
1009.0 1008.6
00 22.05 З 3 19 км мгла 5/3 600 м
[Cu hum Ac und]
+30.7 +24.9 71 +44 +44 опасность
перегрева
1009.0 1008.6 +24.4 +32.9
03 22.05 З 1 10 км 4/0 1500 м
[Ac und Cs]
+28.1 +24.8 82 +40 +40 очень
душно
1011.1 1010.6
06 22.05 ЮЗ 1 10 км 3/0 1500 м
[Ac und]
+27.0 +24.7 87 +38 +38 очень
душно
1012.5 1012.1 +24.4 +32.9
09 22.05 З 1 10 км 3/1 870 м
[Cu hum Ac und]
+27.5 +25.4 88 +40 +40 очень
душно
1011.8 1011.3
12 22.05 Ю 1 17 км 4/0
[Cs]
+27.0 +25.0 89 +39 +39 очень
душно
1010.2 1009.8 +25.7 +32.9
15 22.05 С 1 18 км мгла 6/0
[Cs]
+30.9 +26.0 75 +46 +55 опасность
перегрева
1011.4 1010.8
18 22.05 ЮВ 5 18 км мгла 8/1 840 м
[Cu med, cong Cs]
+35.5 +24.9 54 +49 +57 опасность
перегрева
1011.4 1010.9 +25.7 +36.2
21 22.05 Ю 3 18 км мгла 9/1 900 м
[Cu med, cong Cs]
+35.9 +24.4 52 +48 +58 опасность
перегрева
1008.8 1008.4
00 23.05 Ю 2 18 км мгла 10/3 600 м
[Cu Sc Cs]
+32.0 +26.2 71 +48 +49 опасность
перегрева
1008.3 1007.8 +25.7 +36.4
03 23.05 ЮВ 2 10 км 8/8 900 м
[Cu hum]
+30.0 +27.0 84 +47 +47 опасность
перегрева
1011.3 1010.9
06 23.05 СЗ 2 10 км 8/8 600 м
[Cu hum]
+28.2 +25.6 86 +42 +42 опасность
перегрева
1012.3 1011.9 +25.7 +36.4
09 23.05 СЗ 2 10 км дождь туман 10/10 600 м
[Cu Sc]
+26.4 +25.5 95 +39 +39 очень
душно
1010.4 1010.0 2
12 23.05 С 1 12 км слабый дождь {морось} 10/10 600 м
[Cu Sc]
+26.0 +25.1 95 +37 +37 очень
душно
1011.1 1010.6 9
15 23.05 СЗ 1 18 км 10/10 800 м
[Cu Sc]
+26.9 +25.5 92 +39 +39 очень
душно
1012.0 1011.7
18 23.05 С 1 19 км мгла 10/3 840 м
[Cu med, cong Ac trans Cs]
+33.3 +24.7 61 +46 +55 опасность
перегрева
1011.1 1010.8 +24.8 +34.2
21 23.05 ЮЗ 2 19 км мгла 8/3 870 м
[Cu hum Cs]
+33.9 +26.0 63 +49 +59 опасность
перегрева
1008.8 1008.4
00 24.05 ЮВ 3 19 км мгла 5/0 2000 м
[Ac trans Cs]
+32.7 +26.4 70 +50 +51 опасность
перегрева
1008.1 1007.7 +24.8 +35.3
03 24.05 В 1 10 км 4/0 2000 м
[Ac trans Cs]
+28.8 +26.2 86 +44 +44 опасность
перегрева
1010.4 1010.2

 

Местоположение метеостанции Acapulco (Мексика): широта 16.83 долгота -99.93 высота над уровнем моря 3 м.

В архиве по умолчанию представлена погода в Acapulco за последнюю неделю. Архивные данные за месяц целиком и за предыдущие месяцы, начиная с января 2011 года, Вы можете получить, выбрав интересующий диапазон дат из раскрывающегося списка и нажав кнопку "Ввод!".

Внимание! Время в таблицах - всемирное. Для получения местного времени необходимо прибавить поправку, которая в Acapulco равна -6 ч.

Смотрите также архив погоды в соседних городах и на ближайших метеорологических станциях:

Погода в Chilpancingo (Мексика) (92 км)
Погода в Zacatepec (Мексика) (223 км)
Погода в Cuernavaca (Мексика) (240 км)
Погода в Huajuapan De Leon (Мексика) (253 км)
Погода в Toluca (Мексика) (274 км)
Погода в Geografia Unam (Мексика) (288 км)
Погода в Mexico City (Мексика) (297 км)
Погода в Puebla (Мексика) (310 км)
Погода в Tlaxcala Airport (Мексика) (329 км)
Погода в Tlaxcala (Мексика) (329 км)

Пояснения к столбцам:

Ветер - указаны скорость ветра в м/с - средняя за 10 мин, порывы в срок и между сроками (в фигурных скобках) и направление, откуда дует ветер: С - северный, СВ - северо-восточный, В - восточный, ЮВ - юго-восточный, Ю - южный, ЮЗ - юго-западный, З - западный, СЗ - северо-западный.
Видимость - горизонтальная дальность видимости в метрах или километрах. При видимости от 1 до 10 км при отсутствии осадков обычно наблюдается дымка, при ухудшении видимости до 1 км и менее - туман. В сухую погоду видимость может ухудшаться дымом, пылью или мглою.
Явления - указаны атмосферные явления, наблюдавшиеся в срок или в последний час перед сроком; фигурными скобками обозначены явления, наблюдавшиеся между сроками (за 1-3 часа до срока); квадратными скобками обозначены град или гололедные отложения с указанием их диаметра в мм.
Облачность - указаны через наклонную черту общая и нижняя облачность в баллах и высота нижней границы облаков в метрах; квадратными скобками обозначены формы облаков: Ci - перистые, Cs - перисто-слоистые, Cc - перисто-кучевые, Ac - высококучевые, As - высокослоистые, Sc - слоисто-кучевые, Ns - слоисто-дождевые, Cu - кучевые, Cb - кучево-дождевые. Подробнее классификацию облаков см. в Атласе облаков (PDF).
T - Температура воздуха - температура, измеренная на высоте 2 м над землей.
Td - Температура точки росы - температура, при понижении до которой содержащийся в воздухе водяной пар достигнет насыщения.
f - Относительная влажность воздуха - влажноcть воздуха, измеренная на высоте 2 м над землей.
Te - Эффективная температура - температура, которую ощущает одетый по сезону человек в тени. Характеристика душности погоды. При расчете учитывается влияние влажности воздуха и скорости ветра на теплоощущения человека.
Tes - Эффективная температура на солнце - температура, которую ощущает человек, с поправкой на солнечный нагрев. Характеристика знойности погоды. Зависит от высоты солнца над горизонтом, облачности и скорости ветра. Ночью, в пасмурную погоду, а также при ветре 12 м/с и более поправка равна нулю.
P - Атмосферное давление - приведенное к уровню моря атмосферное давление.
Po - Атмосферное давление - измеренное на уровне метеостанции атмосферное давление.
Tmin - Минимальная температура - минимум температуры воздуха на высоте 2 м над землей.
Tmax - Максимальная температура - максимум температуры воздуха на высоте 2 м над землей.
R - Количество осадков - Количество выпавших осадков за период времени, мм. При наведении курсора мыши на число - период времени, за который выпало указанное количество осадков.
R24 - Количество осадков - Количество выпавших осадков за 24 часа, мм.
S - Снежный покров - Высота снежного покрова, см. При наведении курсора мыши на число - состояние снежного покрова и степень покрытия местности в баллах.